Location: Baia Mare
(47.6567°N, 23.5850°E)
Time: 20:08:08
(UTC+02:00)

ISS - Pass Details

Date: 03 October 2018
Orbit: 401 x 409 km, 51.6° (Epoch: 18 November)

Event Time Altitude Azimuth Distance (km) Brightness Sun altitude
Rises 19:48:07 0° 281° (WNW) 2,347 2.3 -8.7°
Reaches altitude 10° 19:50:18 10° 290° (WNW) 1,484 0.5 -9.1°
Maximum altitude 19:53:28 39° 1° (N) 632 -2.8 -9.6°
Enters shadow 19:56:11 13° 70° (ENE) 1,318 -1.8 -10.0°
